Hourly Data Report for September 02, 2017

All times are specified in Local Standard Time (LST). Add 1 hour to adjust for Daylight Saving Time where and when it is observed.

CAPE DORSET A
NUNAVUT

64°13'49.000" N
76°31'30.000" W
48.20 m
2400637
71366
YTE

Download Data

Hourly Data (September 2017)
Hourly Data Report for September 2, 2017
Temp Definition
°C
Dew Point Temp Definition
°C
Rel Hum Definition
%
Wind Dir Definition
10's deg

Wind Spd Definition
km/h
Visibility Definition
km
Stn Press Definition
kPa
Hmdx Definition


Wind Chill Definition


Weather Definition


TIME
00:00 Legend Double Dagger 4.7 4.7 100 6 11 6.4 99.57     Fog
01:00 Legend Double Dagger 4.3 4.3 100 5 21 4.8 99.56     Fog
02:00 Legend Double Dagger 4.0 3.9 99 7 24 16.1 99.58     LegendNANA
03:00 Legend Double Dagger 3.3 3.2 99 5 22 16.1 99.59     LegendNANA
04:00 Legend Double Dagger 3.3 3.3 100 6 13 3.6 99.65     Rain,Fog
05:00 Legend Double Dagger 2.6 2.6 100 6 15 16.1 99.65     LegendNANA
06:00 Legend Double Dagger 2.6 2.3 98 6 21 16.1 99.61     LegendNANA
07:00 Legend Double Dagger 2.9 2.6 98 7 18 16.1 99.57     Rain
08:00 Legend Double Dagger 3.0 2.9 99 8 11 9.7 99.64     Rain,Fog
09:00 Legend Double Dagger 3.6 3.5 99 7 21 8.1 99.57     Rain,Fog
10:00 Legend Double Dagger 4.0 3.9 99 7 28 8.1 99.47     Rain,Fog
11:00 Legend Double Dagger 4.7 4.6 99 7 28 9.7 99.47     Rain,Fog
12:00 Legend Double Dagger 5.0 4.9 99 8 34 4.8 99.44     Rain,Fog
13:00 Legend Double Dagger 4.8 4.8 100 8 34 1.2 99.43     Rain,Fog
14:00 Legend Double Dagger 4.2 4.2 100 11 17 0.6 99.48     Rain,Fog
15:00 Legend Double Dagger 4.1 4.1 100 11 21 0.6 99.48     Rain,Fog
16:00 Legend Double Dagger 4.3 4.3 100 8 30 0.6 99.47     Fog
17:00 Legend Double Dagger 3.7 3.7 100 9 24 0.4 99.49     Rain,Fog
18:00 Legend Double Dagger 3.5 3.5 100 9 21 0.4 99.54     Rain,Fog
19:00 Legend Double Dagger 3.7 3.7 100 9 21 0.4 99.56     Rain,Fog
20:00 Legend Double Dagger 4.2 4.2 100 8 11 0.8 99.63     Fog
21:00 Legend Double Dagger 4.4 4.4 100 8 15 0.8 99.65     Fog
22:00 Legend Double Dagger 4.3 4.3 100 11 11 0.6 99.63     Fog
23:00 Legend Double Dagger 4.7 4.7 100 10 11 1.0 99.67     Fog

Notes on Data Quality.

Legend

  • E = Estimated
  • M = Missing
  • NA = Not Available
  • ‡ = Partner data that is not subject to review by the National Climate Archives
Date modified: